Погода в Дмитровке

Украина / Киевская область     50°36′13″N   29°46′58″E
темп.,
°C
ветер,
м/с
пор.,
м/с
влажн.,
%
обл.,
%
осадки,
мм/ч
давл.,
гПа
погр.,
м
19 апреля, пн
пн1900:00+4в239142 0.0 101937
03:00+3всв229145 0.0 101923
06:00+3св339315 0.0 101848
09:00+7всв348026 0.0 1018362
12:00+11всв346179 0.1 10171397
15:00+12св3454100 0.2 10161541
18:00+9св357292 0.1 1016196
21:00+7ссв337858 0.1 101635
20 апреля, вт
вт2000:00+7с3581100 0.1 1014137
03:00+6с368896 0.2 1013169
06:00+6ссв489698 0.3 1012361
09:00+6ссв4588100 0.4 1012525
12:00+7с4579100 0.0 1011712
15:00+9ссз4572100 0.1 10101071
18:00+8сз4778100 0.0 1009479
21:00+7сз4885100 0.1 1010341
21 апреля, ср
ср2100:00+6сз3688100 0.1 1010209
03:00+5зсз369258 0.1 1010198
06:00+3зсз379596 0.0 1012144
09:00+6з3583100 0.0 1013241
12:00+10юз466866 0.1 1012986
15:00+13зюз575950 0.7 10121425
18:00+13юз585769 0.7 1012894
21:00+9ююз497470 0.7 1013157
22 апреля, чт
чт2200:00+7ююз498397 0.1 1013160
03:00+6ююз489114 0.1 1014138
06:00+5юз479135 0.0 1014124
09:00+11юз58705 0.0 1015455
12:00+15юз685645 0.3 10151605
15:00+15юз695797 1.3 10151767
18:00+11з4882100 1.3 1016337
21:00+9ююз3489100 1.5 101655
23 апреля, пт
пт2300:00+9ю368921 0.0 101593
03:00+8ю498813 0.1 1014147
06:00+7ю389065 0.1 1013141
09:00+9з578681 0.1 1014551
12:00+5сз6993100 0.1 1017617
15:00+6з4780100 1.8 1017695
18:00+10з4861100 0.1 10151150
21:00+5з36735 0.1 101794